2018-097B (43752 NORAD) Tracking and Keplerian Element Data

This shows tracking and keplerian element data for the satellite.

Feedback or suggestion? Click here.




ElementValue
Catalog43752
Name2018-097B
Epoch Orbit123
Epoch Day343.98651576
Epoch Year2018
RAAN126.8846
Inclination82.5154
Eccentricity0.0014852
Argument of Perigee292.3391
Mean Anonmoly67.611
Mean Motion12.42507764
Decay Rate2E-07
L11 43752U 18097B 18343.98651576 .00000020 00000-0 70907-4 0 9991
L22 43752 82.5154 126.8846 0014852 292.3391 67.6110 12.42507764 1237

Live tracking and technical data element details for 2018-097B (NORAD 43752). 2018-097B can be tracked NOW for your location showing map with azimuth and elevation plus other details from your city location.

Track the satellite on the map from your city or location and see movement details for azimuth, elevation, latitude, longitude, range, height, and movement on the map or in text.







IsCatalogInMostPopularTable: catalog: 43752, numindb: 2
Update: records affected: 1



GetName: 43752 2018-097B

Hit Count: updated at: Tue, 11 Dec 2018 01:53:03 GMT